[{"OBJECT_NAME":"SL-16 R/B","OBJECT_ID":"1996-051B","EPOCH":"2026-09-12T01:37:30.824832","MEAN_MOTION":14.12478844,"ECCENTRICITY":0.001905,"INCLINATION":70.7685,"RA_OF_ASC_NODE":140.8015,"ARG_OF_PERICENTER":225.3195,"MEAN_ANOMALY":134.6373,"EPHEMERIS_TYPE":0,"CLASSIFICATION_TYPE":"U","NORAD_CAT_ID":24298,"ELEMENT_SET_NO":999,"REV_AT_EPOCH":54796,"BSTAR":0.00011622,"MEAN_MOTION_DOT":0.00000166,"MEAN_MOTION_DDOT":0},{"OBJECT_NAME":"ORBVIEW 2 (SEASTAR)","OBJECT_ID":"1997-037A","EPOCH":"2026-09-12T00:04:54.249888","MEAN_MOTION":14.3558961,"ECCENTRICITY":0.0001526,"INCLINATION":98.8778,"RA_OF_ASC_NODE":64.4772,"ARG_OF_PERICENTER":206.1798,"MEAN_ANOMALY":153.9309,"EPHEMERIS_TYPE":0,"CLASSIFICATION_TYPE":"U","NORAD_CAT_ID":24883,"ELEMENT_SET_NO":999,"REV_AT_EPOCH":53520,"BSTAR":0.000060083,"MEAN_MOTION_DOT":0.00000126,"MEAN_MOTION_DDOT":0},{"OBJECT_NAME":"SL-16 R/B","OBJECT_ID":"1998-043G","EPOCH":"2026-09-11T20:56:53.293056","MEAN_MOTION":14.2608048,"ECCENTRICITY":0.0009549,"INCLINATION":98.8458,"RA_OF_ASC_NODE":209.8127,"ARG_OF_PERICENTER":188.7839,"MEAN_ANOMALY":171.3174,"EPHEMERIS_TYPE":0,"CLASSIFICATION_TYPE":"U","NORAD_CAT_ID":25400,"ELEMENT_SET_NO":999,"REV_AT_EPOCH":46552,"BSTAR":0.000026038,"MEAN_MOTION_DOT":1.7e-7,"MEAN_MOTION_DDOT":0},{"OBJECT_NAME":"SL-16 R/B","OBJECT_ID":"1998-045B","EPOCH":"2026-09-12T02:43:33.045024","MEAN_MOTION":14.16210149,"ECCENTRICITY":0.0005329,"INCLINATION":71.0111,"RA_OF_ASC_NODE":149.5229,"ARG_OF_PERICENTER":105.4058,"MEAN_ANOMALY":254.7654,"EPHEMERIS_TYPE":0,"CLASSIFICATION_TYPE":"U","NORAD_CAT_ID":25407,"ELEMENT_SET_NO":999,"REV_AT_EPOCH":45349,"BSTAR":0.0001046,"MEAN_MOTION_DOT":0.0000016,"MEAN_MOTION_DDOT":0},{"OBJECT_NAME":"ISS (ZARYA)","OBJECT_ID":"1998-067A","EPOCH":"2026-09-12T03:26:27.458304","MEAN_MOTION":15.49086104,"ECCENTRICITY":0.0004961,"INCLINATION":51.6305,"RA_OF_ASC_NODE":229.7248,"ARG_OF_PERICENTER":131.0693,"MEAN_ANOMALY":229.0724,"EPHEMERIS_TYPE":0,"CLASSIFICATION_TYPE":"U","NORAD_CAT_ID":25544,"ELEMENT_SET_NO":999,"REV_AT_EPOCH":58523,"BSTAR":0.00009835,"MEAN_MOTION_DOT":0.00004988,"MEAN_MOTION_DDOT":0},{"OBJECT_NAME":"CZ-4B R/B","OBJECT_ID":"1999-025C","EPOCH":"2026-09-12T02:45:49.919040","MEAN_MOTION":14.18294957,"ECCENTRICITY":0.0037405,"INCLINATION":98.6415,"RA_OF_ASC_NODE":294.7368,"ARG_OF_PERICENTER":166.8466,"MEAN_ANOMALY":215.3076,"EPHEMERIS_TYPE":0,"CLASSIFICATION_TYPE":"U","NORAD_CAT_ID":25732,"ELEMENT_SET_NO":999,"REV_AT_EPOCH":41459,"BSTAR":0.000025372,"MEAN_MOTION_DOT":1e-7,"MEAN_MOTION_DDOT":0},{"OBJECT_NAME":"OKEAN-O","OBJECT_ID":"1999-039A","EPOCH":"2026-09-12T03:03:07.913088","MEAN_MOTION":14.80550146,"ECCENTRICITY":0.0001961,"INCLINATION":97.923,"RA_OF_ASC_NODE":312.8902,"ARG_OF_PERICENTER":91.2818,"MEAN_ANOMALY":268.8619,"EPHEMERIS_TYPE":0,"CLASSIFICATION_TYPE":"U","NORAD_CAT_ID":25860,"ELEMENT_SET_NO":999,"REV_AT_EPOCH":46197,"BSTAR":0.000054221,"MEAN_MOTION_DOT":0.00000364,"MEAN_MOTION_DDOT":0},{"OBJECT_NAME":"SL-16 R/B","OBJECT_ID":"1999-039B","EPOCH":"2026-09-12T03:15:50.671296","MEAN_MOTION":14.81917288,"ECCENTRICITY":0.0015097,"INCLINATION":97.975,"RA_OF_ASC_NODE":313.7127,"ARG_OF_PERICENTER":17.5763,"MEAN_ANOMALY":342.5969,"EPHEMERIS_TYPE":0,"CLASSIFICATION_TYPE":"U","NORAD_CAT_ID":25861,"ELEMENT_SET_NO":999,"REV_AT_EPOCH":46447,"BSTAR":0.000045171,"MEAN_MOTION_DOT":0.00000304,"MEAN_MOTION_DDOT":0},{"OBJECT_NAME":"DELTA 2 R/B","OBJECT_ID":"1999-041E","EPOCH":"2026-09-12T02:04:48.732960","MEAN_MOTION":14.12244374,"ECCENTRICITY":0.0500623,"INCLINATION":51.7616,"RA_OF_ASC_NODE":276.5256,"ARG_OF_PERICENTER":178.5941,"MEAN_ANOMALY":181.6535,"EPHEMERIS_TYPE":0,"CLASSIFICATION_TYPE":"U","NORAD_CAT_ID":25876,"ELEMENT_SET_NO":999,"REV_AT_EPOCH":38936,"BSTAR":0.00012663,"MEAN_MOTION_DOT":0.00000548,"MEAN_MOTION_DDOT":0},{"OBJECT_NAME":"HELIOS 1B","OBJECT_ID":"1999-064A","EPOCH":"2026-09-12T04:30:24.827040","MEAN_MOTION":14.88194658,"ECCENTRICITY":0.0001823,"INCLINATION":98.1515,"RA_OF_ASC_NODE":162.8116,"ARG_OF_PERICENTER":121.4884,"MEAN_ANOMALY":238.651,"EPHEMERIS_TYPE":0,"CLASSIFICATION_TYPE":"U","NORAD_CAT_ID":25977,"ELEMENT_SET_NO":999,"REV_AT_EPOCH":71299,"BSTAR":0.00010363,"MEAN_MOTION_DOT":0.00000897,"MEAN_MOTION_DDOT":0},{"OBJECT_NAME":"TERRA","OBJECT_ID":"1999-068A","EPOCH":"2026-09-12T04:42:12.379968","MEAN_MOTION":14.61158656,"ECCENTRICITY":0.0001557,"INCLINATION":97.9374,"RA_OF_ASC_NODE":301.258,"ARG_OF_PERICENTER":353.5066,"MEAN_ANOMALY":78.9055,"EPHEMERIS_TYPE":0,"CLASSIFICATION_TYPE":"U","NORAD_CAT_ID":25994,"ELEMENT_SET_NO":999,"REV_AT_EPOCH":42231,"BSTAR":0.000055701,"MEAN_MOTION_DOT":0.0000023,"MEAN_MOTION_DDOT":0},{"OBJECT_NAME":"SL-16 R/B","OBJECT_ID":"2000-006B","EPOCH":"2026-09-11T18:04:40.950336","MEAN_MOTION":14.1584311,"ECCENTRICITY":0.0018766,"INCLINATION":71.0011,"RA_OF_ASC_NODE":66.6027,"ARG_OF_PERICENTER":259.7257,"MEAN_ANOMALY":100.175,"EPHEMERIS_TYPE":0,"CLASSIFICATION_TYPE":"U","NORAD_CAT_ID":26070,"ELEMENT_SET_NO":999,"REV_AT_EPOCH":37489,"BSTAR":-0.000071194708,"MEAN_MOTION_DOT":-0.00000188,"MEAN_MOTION_DDOT":0},{"OBJECT_NAME":"TITAN 4B R/B","OBJECT_ID":"2000-047B","EPOCH":"2026-09-12T03:23:04.941024","MEAN_MOTION":15.10593693,"ECCENTRICITY":0.0042144,"INCLINATION":67.9856,"RA_OF_ASC_NODE":235.7349,"ARG_OF_PERICENTER":198.2337,"MEAN_ANOMALY":161.7305,"EPHEMERIS_TYPE":0,"CLASSIFICATION_TYPE":"U","NORAD_CAT_ID":26474,"ELEMENT_SET_NO":999,"REV_AT_EPOCH":42106,"BSTAR":0.00011579,"MEAN_MOTION_DOT":0.00001815,"MEAN_MOTION_DDOT":0},{"OBJECT_NAME":"ENVISAT","OBJECT_ID":"2002-009A","EPOCH":"2026-09-11T20:59:36.329856","MEAN_MOTION":14.39081544,"ECCENTRICITY":0.00011883,"INCLINATION":98.3914,"RA_OF_ASC_NODE":204.2901,"ARG_OF_PERICENTER":90.5615,"MEAN_ANOMALY":288.814,"EPHEMERIS_TYPE":0,"CLASSIFICATION_TYPE":"U","NORAD_CAT_ID":27386,"ELEMENT_SET_NO":999,"REV_AT_EPOCH":28595,"BSTAR":0.00002777228,"MEAN_MOTION_DOT":4.3e-7,"MEAN_MOTION_DDOT":0},{"OBJECT_NAME":"IDEFIX & ARIANE 42P R/B","OBJECT_ID":"2002-021B","EPOCH":"2026-09-11T19:49:08.935104","MEAN_MOTION":14.3111521,"ECCENTRICITY":0.0012022,"INCLINATION":98.5974,"RA_OF_ASC_NODE":191.3807,"ARG_OF_PERICENTER":5.5254,"MEAN_ANOMALY":354.6059,"EPHEMERIS_TYPE":0,"CLASSIFICATION_TYPE":"U","NORAD_CAT_ID":27422,"ELEMENT_SET_NO":999,"REV_AT_EPOCH":27064,"BSTAR":0.0000663,"MEAN_MOTION_DOT":0.00000131,"MEAN_MOTION_DDOT":0},{"OBJECT_NAME":"AQUA","OBJECT_ID":"2002-022A","EPOCH":"2026-09-12T05:39:22.159296","MEAN_MOTION":14.6219831,"ECCENTRICITY":0.0001638,"INCLINATION":98.4385,"RA_OF_ASC_NODE":226.3026,"ARG_OF_PERICENTER":70.0506,"MEAN_ANOMALY":346.6067,"EPHEMERIS_TYPE":0,"CLASSIFICATION_TYPE":"U","NORAD_CAT_ID":27424,"ELEMENT_SET_NO":999,"REV_AT_EPOCH":29599,"BSTAR":0.00010895,"MEAN_MOTION_DOT":0.00000499,"MEAN_MOTION_DDOT":0},{"OBJECT_NAME":"CZ-4B R/B","OBJECT_ID":"2002-024C","EPOCH":"2026-09-12T02:14:37.769280","MEAN_MOTION":14.14574908,"ECCENTRICITY":0.0049592,"INCLINATION":98.8616,"RA_OF_ASC_NODE":307.3148,"ARG_OF_PERICENTER":212.3231,"MEAN_ANOMALY":177.515,"EPHEMERIS_TYPE":0,"CLASSIFICATION_TYPE":"U","NORAD_CAT_ID":27432,"ELEMENT_SET_NO":999,"REV_AT_EPOCH":25559,"BSTAR":0.000030882,"MEAN_MOTION_DOT":1.6e-7,"MEAN_MOTION_DDOT":0},{"OBJECT_NAME":"MIDORI II (ADEOS-II)","OBJECT_ID":"2002-056A","EPOCH":"2026-09-12T03:34:18.683040","MEAN_MOTION":14.29387368,"ECCENTRICITY":0.0001489,"INCLINATION":98.7977,"RA_OF_ASC_NODE":215.187,"ARG_OF_PERICENTER":125.7101,"MEAN_ANOMALY":234.4219,"EPHEMERIS_TYPE":0,"CLASSIFICATION_TYPE":"U","NORAD_CAT_ID":27597,"ELEMENT_SET_NO":999,"REV_AT_EPOCH":23693,"BSTAR":0.000076565,"MEAN_MOTION_DOT":0.0000015,"MEAN_MOTION_DDOT":0},{"OBJECT_NAME":"H-2A R/B","OBJECT_ID":"2002-056E","EPOCH":"2026-09-11T21:24:26.748864","MEAN_MOTION":14.33860742,"ECCENTRICITY":0.0069552,"INCLINATION":98.3404,"RA_OF_ASC_NODE":208.4407,"ARG_OF_PERICENTER":327.9055,"MEAN_ANOMALY":94.8485,"EPHEMERIS_TYPE":0,"CLASSIFICATION_TYPE":"U","NORAD_CAT_ID":27601,"ELEMENT_SET_NO":999,"REV_AT_EPOCH":24079,"BSTAR":0.000075987,"MEAN_MOTION_DOT":0.00000175,"MEAN_MOTION_DDOT":0},{"OBJECT_NAME":"CZ-4B R/B","OBJECT_ID":"2003-049C","EPOCH":"2026-09-12T00:14:14.198784","MEAN_MOTION":14.5514938,"ECCENTRICITY":0.0048577,"INCLINATION":98.6955,"RA_OF_ASC_NODE":257.3372,"ARG_OF_PERICENTER":24.4205,"MEAN_ANOMALY":335.9277,"EPHEMERIS_TYPE":0,"CLASSIFICATION_TYPE":"U","NORAD_CAT_ID":28059,"ELEMENT_SET_NO":999,"REV_AT_EPOCH":21369,"BSTAR":0.000067714,"MEAN_MOTION_DOT":0.00000245,"MEAN_MOTION_DDOT":0},{"OBJECT_NAME":"CZ-2C R/B","OBJECT_ID":"2004-012C","EPOCH":"2026-09-12T00:13:36.275232","MEAN_MOTION":16.22269665,"ECCENTRICITY":0.0011311,"INCLINATION":97.7019,"RA_OF_ASC_NODE":342.6311,"ARG_OF_PERICENTER":262.6304,"MEAN_ANOMALY":97.37,"EPHEMERIS_TYPE":0,"CLASSIFICATION_TYPE":"U","NORAD_CAT_ID":28222,"ELEMENT_SET_NO":999,"REV_AT_EPOCH":23371,"BSTAR":0.00060587,"MEAN_MOTION_DOT":0.01374897,"MEAN_MOTION_DDOT":0.0000026304},{"OBJECT_NAME":"SL-16 R/B","OBJECT_ID":"2004-021B","EPOCH":"2026-09-12T03:16:52.341024","MEAN_MOTION":14.14619623,"ECCENTRICITY":0.0002977,"INCLINATION":71.0002,"RA_OF_ASC_NODE":201.2101,"ARG_OF_PERICENTER":136.1006,"MEAN_ANOMALY":224.0353,"EPHEMERIS_TYPE":0,"CLASSIFICATION_TYPE":"U","NORAD_CAT_ID":28353,"ELEMENT_SET_NO":999,"REV_AT_EPOCH":14920,"BSTAR":-0.00012215,"MEAN_MOTION_DOT":-0.00000282,"MEAN_MOTION_DDOT":0},{"OBJECT_NAME":"CZ-4B R/B","OBJECT_ID":"2004-035C","EPOCH":"2026-09-12T01:11:54.014208","MEAN_MOTION":15.31722073,"ECCENTRICITY":0.0030822,"INCLINATION":97.3316,"RA_OF_ASC_NODE":287.1852,"ARG_OF_PERICENTER":28.7663,"MEAN_ANOMALY":331.527,"EPHEMERIS_TYPE":0,"CLASSIFICATION_TYPE":"U","NORAD_CAT_ID":28415,"ELEMENT_SET_NO":999,"REV_AT_EPOCH":20841,"BSTAR":0.00018141,"MEAN_MOTION_DOT":0.00005558,"MEAN_MOTION_DDOT":0}]